User: anonymous   Login
Location: Black Rock Desert
(40.7548°N, 119.2364°W)
Time: 13:35:04
(UTC-08:00)
Language:

Cosmos 1340 Rocket - Orbit

View from above orbital plane
View from above orbital plane
View from above satellite
View from above satellite

Ground track
Ground track

The orbit data is extracted from the following two-line orbital elements,

1 13068U 82013B   15065.35266484  .00002659  00000-0  18298-3 0  9990
2 13068 081.2015 093.5916 0022425 184.0594 176.0451 15.05388602797966
Epoch (UTC): 06 March 2015 08:27:50
Eccentricity: 0.0022425
inclination: 81.2015°
perigee height: 535 km
apogee height: 566 km
right ascension of ascending node: 93.5916°
argument of perigee: 184.0594°
revolutions per day: 15.05388602
mean anomaly at epoch: 176.0451°
orbit number at epoch: 79796

The dashed part of the orbit path shows where the satellite is in the earth's shadow,  

DLR